EHI
0 0 0 0 0 0 0 0 0 0 0 1 4 6 6 9 16 21 21 19 16 14 12 10 11 13 15 18 20 21 20 20 20 22 24 25 20 12 6 5 4 2 1 0
0 0 0 0 0 0 0 0 0 0 0 0 2 3 4 8 16 20 19 16 14 12 10 7 7 8 9 12 14 16 16 17 18 20 21 20 15 10 6 6 5 3 2 1
0 0 0 0 0 0 0 0 0 0 0 0 0 1 2 7 14 18 16 13 12 11 8 5 3 4 4 5 7 10 11 11 13 15 16 14 11 8 6 6 5 4 2 1
0 0 0 0 0 0 0 0 0 0 0 0 0 0 1 4 9 12 11 10 10 9 7 5 4 3 3 3 4 5 6 7 8 10 11 10 8 6 5 4 3 3 1 0
0 0 0 0 0 0 0 0 0 0 0 0 0 0 0 1 4 5 5 6 6 6 5 5 4 3 2 2 2 3 4 4 4 6 7 6 6 5 3 2 1 1 0 0
0 0 0 0 0 0 0 0 0 0 0 0 0 0 0 0 1 1 2 3 4 4 3 3 2 1 1 1 1 3 4 3 3 4 4 4 4 3 1 1 0 0 0 0
0 0 0 0 0 0 0 0 0 0 0 0 0 0 0 0 0 0 0 2 4 3 1 1 0 0 0 0 1 3 4 4 3 2 1 1 2 1 0 0 0 0 0 0
0 0 0 0 0 0 0 0 0 0 0 0 0 0 0 0 0 0 0 1 2 2 1 0 0 0 0 0 1 2 3 3 2 1 0 0 0 0 0 0 0 0 0 0
0 0 0 0 0 0 0 0 0 0 0 0 0 0 0 0 0 0 0 0 1 1 0 0 0 1 0 0 0 2 3 2 1 0 0 0 0 0 0 0 0 0 0 0
0 0 0 0 0 0 0 0 0 0 0 0 0 0 0 0 0 0 0 0 0 0 0 0 0 0 0 0 0 1 2 1 0 0 0 0 0 0 0 0 0 0 0 0
0 0 0 0 0 0 0 0 0 0 0 0 0 0 0 0 0 0 0 0 0 0 0 0 0 0 0 0 0 1 1 0 0 0 0 0 0 0 0 0 0 0 0 0
0 0 0 0 0 0 0 0 0 0 0 0 0 0 0 0 0 0 0 0 0 0 0 0 0 0 0 0 0 0 0 0 0 0 0 0 0 0 0 0 0 0 0 0
0 0 0 0 0 0 0 0 0 0 0 0 0 0 0 0 0 0 0 0 0 0 0 0 0 0 0 0 0 0 0 0 0 0 0 0 0 0 0 0 0 0 0 0
0 0 0 0 0 0 0 0 0 0 0 0 0 0 0 0 0 0 0 0 0 0 0 0 0 0 0 0 0 0 0 0 0 0 0 0 0 0 0 0 0 0 0 0
0 0 0 0 0 0 0 0 0 0 0 0 0 0 0 0 0 0 0 0 0 0 0 0 0 0 0 0 0 0 0 0 0 0 0 0 0 0 0 0 0 0 0 0
0 0 0 0 0 0 0 0 0 0 0 0 0 0 0 0 0 0 0 0 0 0 0 0 0 0 0 0 0 0 0 0 0 0 0 0 0 0 0 0 0 0 0 0
0 0 0 0 0 0 0 0 0 0 0 0 0 0 0 0 0 0 0 0 0 0 0 0 0 0 0 0 0 0 0 0 0 0 0 0 0 0 0 0 0 0 0 0
0 0 0 0 0 0 0 0 0 0 0 0 0 0 0 0 0 0 0 0 0 0 0 0 0 0 0 0 0 0 0 0 0 0 0 0 0 0 0 0 0 0 0 0
0 0 0 0 0 0 0 0 0 0 0 0 0 0 0 0 0 0 0 0 0 0 0 0 0 0 0 0 0 0 0 0 0 0 0 0 0 0 0 0 0 0 0 0
0 0 0 0 0 0 0 0 0 0 0 0 0 0 0 0 0 0 0 0 0 0 0 0 0 0 0 0 0 0 0 0 0 0 0 0 0 0 0 0 0 0 0 0
0 0 0 0 0 0 0 0 0 0 0 0 0 0 0 0 0 0 0 0 0 0 0 0 0 0 0 0 0 0 0 0 0 0 0 0 0 0 0 0 0 0 0 0
0 0 0 0 0 0 0 0 0 0 0 0 0 0 0 0 0 0 0 0 0 0 0 0 0 0 0 0 0 0 0 0 0 0 0 0 0 0 0 0 0 0 0 0
0 0 0 0 0 0 0 0 0 0 0 0 0 0 0 0 0 0 0 0 0 0 0 0 0 0 0 0 0 0 0 0 0 0 0 0 0 0 0 0 0 0 0 0
0 0 0 0 0 0 0 0 0 0 0 0 0 0 0 0 0 0 0 0 0 0 0 0 0 0 0 0 0 0 0 0 0 0 0 0 0 0 0 0 0 0 0 0
0 0 0 0 0 0 0 0 0 0 0 0 0 0 0 0 0 0 0 0 0 0 0 0 0 0 0 0 0 0 0 0 0 0 0 0 0 0 0 0 0 0 0 0
0 0 0 0 0 0 0 0 0 0 0 0 0 0 0 0 0 0 0 0 0 0 0 0 0 0 0 0 0 0 0 0 0 0 0 0 0 0 0 0 0 0 0 0
Wind_Speed
2 2 5 9 8 8 6 6 7 7 4 4 5 3 1 2 7 8 7 8 9 9 7 8 9 9 9 9 8 6 4 1 1 2 3 3 2 2 2 1 1 1 1 1
3 6 13 10 8 8 9 8 7 6 3 3 3 2 1 2 3 5 7 8 8 7 8 9 9 10 10 9 8 7 5 2 1 2 3 2 3 2 2 2 2 2 1 1
7 10 8 8 10 9 7 5 4 4 3 3 3 2 2 3 5 6 7 7 7 8 8 8 9 10 10 9 8 6 5 3 2 1 2 3 3 3 2 2 1 1 1 1
7 10 9 8 7 6 6 5 2 1 2 3 2 1 3 1 4 6 7 6 7 8 8 8 8 9 9 9 8 7 6 4 3 2 3 4 4 4 3 2 2 2 3 3
7 5 5 6 6 4 6 3 0 1 1 2 4 2 4 1 2 3 4 6 7 8 9 9 8 8 8 8 7 7 6 7 5 4 4 4 4 4 4 3 4 4 4 4
10 8 5 6 6 4 2 4 6 6 5 2 3 1 3 2 2 3 4 6 7 8 8 8 8 8 8 8 7 7 7 7 7 6 6 5 5 5 5 5 4 4 4 4
8 8 5 3 3 3 4 6 5 6 5 3 3 1 3 2 1 5 7 7 8 7 7 8 9 9 9 9 8 7 7 8 7 7 7 7 7 7 7 6 6 6 5 5
3 7 5 1 3 3 1 7 6 4 4 3 3 1 2 2 3 5 7 8 8 7 7 8 8 7 7 8 8 8 7 7 7 7 8 7 7 6 6 7 6 6 5 6
3 5 5 4 1 4 1 1 6 7 2 0 2 2 2 3 4 6 7 8 7 7 7 7 7 7 7 7 7 7 7 7 7 8 8 8 8 8 8 8 7 6 6 6
4 4 5 4 5 3 4 4 5 5 4 2 3 4 5 7 7 5 6 7 6 6 7 6 6 6 6 6 6 7 7 8 8 8 7 7 8 8 8 8 9 8 7 7
2 3 4 4 1 3 2 2 4 4 4 5 4 6 4 9 10 9 8 8 7 7 6 5 5 5 5 6 6 7 7 8 8 8 7 8 8 8 8 8 8 8 8 8
1 4 1 3 4 2 3 2 5 4 3 4 3 6 1 6 8 10 10 9 8 7 7 6 5 5 5 5 6 6 7 7 7 7 7 8 8 8 8 9 8 8 9 8
2 4 3 7 8 5 2 1 3 4 4 3 4 5 1 5 8 9 10 9 8 8 7 6 5 5 4 4 5 6 6 7 6 7 7 8 8 8 8 8 8 8 9 9
1 2 5 5 7 5 4 4 1 4 3 4 6 6 5 8 11 10 10 10 9 8 7 6 5 4 4 4 4 5 5 5 6 7 7 8 7 7 7 7 8 8 8 9
3 1 3 4 6 3 4 5 3 3 6 7 7 8 10 13 13 12 11 11 10 9 8 7 6 4 4 4 4 5 5 5 5 7 7 7 7 7 7 8 8 8 8 9
3 1 3 5 6 5 4 4 2 2 3 4 6 3 5 10 10 11 12 12 11 10 9 7 7 6 5 4 4 4 5 4 5 6 7 6 7 7 7 7 8 8 8 8
2 1 2 5 7 4 3 3 1 1 3 7 7 7 13 12 13 13 13 12 11 10 9 8 7 6 5 4 4 4 4 4 4 5 6 6 6 7 7 7 8 7 7 7
4 1 1 3 4 2 5 3 1 2 2 2 5 10 14 11 9 8 9 11 11 10 9 8 6 6 5 4 4 4 4 4 5 5 5 5 6 7 6 7 7 6 6 6
7 6 2 1 1 5 3 3 0 3 0 2 9 12 11 12 9 4 5 8 9 9 8 7 6 6 5 5 4 5 5 4 5 5 5 5 6 6 6 6 5 5 5 5
3 4 4 2 2 5 5 4 1 5 1 4 10 15 15 12 7 6 8 9 10 9 8 7 7 7 6 4 4 5 5 5 5 4 5 5 5 6 6 5 4 4 4 4
3 1 3 3 3 6 5 4 2 2 7 8 11 15 14 7 6 10 13 11 10 10 9 8 7 6 5 4 5 5 5 4 4 4 5 5 5 5 5 4 4 5 5 5
0 0 0 1 3 7 3 0 3 5 3 9 9 11 9 9 13 14 14 13 12 10 9 8 7 6 4 5 5 5 4 4 5 5 5 5 4 4 5 5 4 4 5 5
1 2 3 4 6 6 3 1 1 5 8 6 8 10 13 13 14 15 13 12 11 10 8 7 8 7 5 5 5 6 4 5 6 6 5 4 4 4 4 4 4 4 4 3
3 2 2 2 3 2 2 3 3 6 8 9 12 14 14 15 15 14 13 11 10 8 8 7 7 7 5 4 4 4 4 5 6 5 4 4 5 6 5 4 3 3 3 3
5 2 1 2 1 3 3 4 8 10 13 14 13 12 14 16 15 14 12 11 9 8 6 6 6 6 5 4 4 4 4 5 6 5 5 5 5 6 5 5 4 3 1 3
5 4 3 4 5 4 4 5 11 13 13 14 15 12 12 13 13 12 10 8 8 8 7 7 6 6 5 5 4 4 4 6 6 5 5 4 4 4 4 5 5 8 6 6
Wind_Direction
243 114 237 234 213 217 250 275 286 289 298 98 123 134 143 92 97 105 105 98 92 82 59 47 40 39 41 41 45 43 37 35 157 139 140 150 157 144 125 128 105 102 143 182
341 259 243 243 248 246 248 259 278 300 328 95 123 103 59 60 95 113 111 102 97 83 61 44 33 33 38 32 31 35 40 22 340 155 161 156 134 112 112 86 80 71 124 157
222 250 257 251 257 253 257 240 253 274 330 33 107 27 19 31 70 74 76 88 91 85 70 49 34 30 30 25 21 23 20 32 23 83 124 118 113 113 109 112 91 59 74 98
245 258 271 273 260 227 254 251 246 326 35 323 54 261 306 70 60 67 66 69 75 76 72 58 43 35 27 18 11 14 17 20 28 79 112 142 143 135 137 128 111 81 52 48
264 279 289 276 259 235 229 230 111 8 77 34 10 94 292 39 56 72 73 73 67 65 64 55 43 34 27 19 13 4 11 25 32 65 98 107 115 119 117 110 100 83 63 53
264 275 257 245 264 236 192 50 28 39 61 38 303 144 283 282 223 149 115 98 88 77 64 53 41 29 23 22 20 14 22 29 32 51 70 88 108 113 107 100 97 82 73 62
299 295 280 265 299 321 63 76 25 358 11 269 293 112 247 288 255 156 137 117 99 83 68 51 38 28 20 20 21 30 34 33 34 51 65 76 84 87 89 90 88 83 78 68
283 296 296 283 195 210 194 139 159 203 226 264 326 227 254 7 78 110 114 107 95 82 70 57 43 30 23 21 23 34 42 44 44 56 68 74 77 81 80 79 83 80 78 72
224 270 292 295 217 148 159 206 169 138 138 113 274 260 263 131 118 118 113 106 93 83 77 66 51 41 33 28 27 31 45 53 56 63 70 72 76 81 86 86 81 79 75 75
196 259 290 317 27 28 148 151 88 109 144 220 259 249 230 192 190 163 136 122 109 97 87 80 64 52 41 36 34 36 45 56 59 64 70 75 73 79 83 86 83 77 73 75
198 196 308 6 15 285 360 81 110 118 150 159 230 256 223 189 185 169 149 133 127 114 103 90 76 62 53 47 46 49 50 57 61 63 68 73 74 78 81 81 81 81 77 74
295 124 274 282 263 213 160 179 146 150 209 179 190 258 298 172 167 154 144 137 130 118 108 98 87 75 62 55 54 57 58 61 59 63 70 73 74 76 77 79 78 79 79 75
355 91 40 343 339 347 358 248 165 137 129 162 183 250 81 127 136 141 139 135 128 119 110 102 91 83 76 68 64 65 64 66 64 67 73 74 72 75 78 78 79 79 80 77
359 126 163 205 238 262 288 285 230 126 153 199 208 192 168 158 150 146 141 137 130 125 122 116 105 97 90 80 76 75 72 71 74 74 75 74 73 76 80 80 80 80 80 79
61 196 246 252 262 260 268 266 247 209 195 188 199 182 188 177 163 154 146 141 138 134 132 129 125 116 105 93 85 84 81 76 80 82 79 77 75 76 78 79 78 79 80 81
17 358 339 311 298 302 309 302 268 240 162 143 138 175 160 144 140 149 152 151 149 146 143 137 134 131 123 117 111 100 94 87 84 88 88 86 84 81 80 81 81 81 80 78
316 60 17 294 306 337 311 304 292 205 175 159 181 178 145 150 162 166 163 158 155 153 149 145 143 138 134 134 128 122 118 110 102 97 94 94 95 89 84 88 84 85 86 83
198 138 175 278 351 291 259 282 202 110 39 141 133 147 156 155 149 150 155 154 154 153 150 147 143 134 130 128 127 120 111 107 104 102 101 100 100 96 91 89 87 86 87 88
188 166 176 185 257 279 280 294 201 130 18 148 135 136 129 120 107 119 149 147 148 147 143 139 136 128 124 124 127 115 106 100 97 96 99 99 99 98 95 93 92 90 89 84
151 145 150 167 206 250 252 272 310 99 187 192 151 148 147 141 155 174 155 139 135 134 134 132 130 125 127 131 125 116 110 104 101 101 101 101 102 106 106 105 98 90 93 91
18 57 169 189 219 259 256 280 352 212 229 171 159 156 158 167 166 144 139 134 136 135 135 133 130 130 136 132 117 112 110 114 117 106 98 97 100 105 106 98 96 98 94 87
326 17 243 163 213 254 285 337 204 217 136 137 148 153 142 124 121 129 134 135 137 136 136 135 131 131 133 127 118 115 118 118 106 99 97 97 93 96 100 97 96 100 103 97
237 187 210 206 224 257 291 202 176 130 124 127 138 137 132 128 132 133 135 138 139 138 135 131 131 128 124 123 124 125 130 118 104 97 95 89 77 72 84 97 100 94 99 106
286 231 202 251 259 284 37 78 80 113 120 125 132 134 135 133 135 134 137 138 136 134 134 132 133 131 130 131 130 132 130 122 115 111 102 93 86 75 65 68 86 103 113 118
264 287 286 262 201 68 49 102 113 105 110 115 119 126 133 133 136 138 139 141 140 138 137 138 139 139 145 144 138 135 128 120 116 114 109 100 95 95 82 68 57 84 103 158
231 200 199 236 215 154 167 143 126 121 124 127 125 121 128 134 136 136 138 138 139 140 138 137 136 136 139 138 138 138 133 127 122 117 117 116 112 106 104 98 68 44 62 91